CAPE
1858 2177 1434 1225 917 224 387 739 329 230 227 242 165 118 191 73 575 1262 772 1309 843 862 926 854 860 987 964 845 732 715 830 598 507 438 446 434 337 64
1552 1717 1124 676 565 252 149 295 675 315 239 252 123 291 628 371 477 882 959 1016 849 736 744 778 769 835 932 920 886 746 651 576 516 384 283 218 221 243
1164 950 1166 1042 795 578 245 153 226 623 267 374 250 619 1075 459 675 976 1177 1555 1380 505 466 589 632 536 680 709 750 689 709 749 573 500 410 246 205 212
955 1043 988 1300 1005 1658 1835 1512 918 1400 813 1484 933 236 425 754 604 1253 1238 1203 777 362 181 243 74 370 585 564 586 608 564 555 576 503 461 329 310 210
791 774 758 782 909 1213 1748 1559 2065 1584 889 681 739 408 198 257 498 1144 788 784 589 242 103 83 104 223 273 290 327 344 371 450 412 442 450 332 308 311
147 273 47 48 103 219 421 1136 1117 1268 1716 1351 983 657 718 597 191 190 331 285 161 119 99 52 125 236 214 187 135 173 271 377 396 262 302 372 336 313
14 20 10 4 0 0 1 52 205 873 1132 1153 1187 820 424 260 268 81 41 14 20 25 14 0 0 20 177 172 151 87 111 126 83 184 342 295 415 342
7 17 24 15 7 0 0 0 0 8 86 258 381 379 297 199 196 150 103 49 22 0 17 3 0 0 11 25 0 0 0 20 62 17 103 216 312 316
15 10 3 7 11 45 17 18 5 2 1 37 3 74 134 120 122 73 132 180 131 0 0 1 0 0 0 1 47 5 0 0 0 0 5 142 138 178
7 9 6 2 0 4 17 15 16 8 2 6 18 20 28 19 67 58 46 0 0 0 2 0 1 13 0 0 4 8 2 0 1 0 0 8 86 207
26 0 5 4 0 3 34 27 44 35 0 0 0 0 0 0 0 4 20 8 59 104 64 17 40 2 2 28 9 4 0 3 2 7 0 0 14 41
31 18 0 0 0 0 28 45 43 38 42 65 94 30 29 46 3 57 195 137 151 82 137 33 93 72 25 176 114 48 46 5 2 9 37 25 19 42
0 0 0 0 0 0 0 0 0 0 56 59 46 25 24 57 299 241 238 204 182 193 18 130 141 26 53 127 156 109 40 43 69 84 68 28 30 62
0 0 0 0 0 0 0 0 0 0 6 31 15 27 41 41 41 0 0 0 0 1 11 15 4 5 9 4 0 27 6 2 9 9 10 5 46 69
0 0 0 0 0 0 0 0 2 1 4 5 10 18 63 48 37 49 77 56 3 0 0 0 0 2 9 22 6 0 12 0 0 0 2 21 26 23
0 5 0 0 1 7 6 8 16 8 15 13 20 33 37 36 66 61 42 52 49 102 66 35 34 25 32 81 54 23 59 58 58 10 0 0 0 0
0 14 8 7 7 7 9 13 17 17 20 18 13 21 24 29 49 59 66 92 81 72 118 191 129 302 203 222 129 117 116 70 45 161 91 24 12 12
0 4 5 6 10 8 8 8 9 10 6 6 11 17 21 32 61 17 29 40 72 64 50 31 34 21 25 48 172 68 63 53 61 87 98 38 25 54
8 6 6 12 13 10 4 3 1 6 54 6 8 13 13 19 21 33 42 52 64 77 69 65 92 101 46 53 44 17 59 50 69 70 71 65 48 71
6 3 7 9 9 3 1 2 3 6 4 4 3 1 4 13 20 29 35 76 44 36 46 81 82 42 40 60 63 45 13 57 71 56 48 50 39 12
7 5 9 7 9 3 0 3 7 4 2 2 1 2 27 37 33 24 24 4 16 51 53 40 58 59 66 65 48 54 111 78 95 70 73 17 21 30
9 14 14 14 10 4 1 1 1 1 2 0 1 13 28 30 38 30 34 39 32 32 45 78 146 128 117 81 57 43 53 59 72 22 22 34 57 5
22 26 21 12 6 3 1 1 1 1 0 0 14 27 25 49 32 29 49 38 33 38 46 8 45 61 69 67 28 36 49 33 31 32 42 25 66 82
CIN
0 -1 0 0 -1 -1 -34 -6 0 0 0 0 -1 -2 -2 -15 -6 -1 -4 -23 -100 -99 -71 -52 -49 -37 -35 -33 -37 -23 -7 -6 -4 -3 -1 0 0 0
-2 -1 -2 -3 0 0 -2 -3 -6 0 -5 -29 -24 -2 -12 -15 -11 -1 -2 -18 -45 -108 -97 -70 -53 -45 -38 -39 -29 -26 -26 -21 -12 -9 -6 -4 -1 -8
0 0 0 -2 -1 0 -11 -17 -13 -25 -19 0 0 -6 -1 -2 0 -1 -7 -5 -13 -12 -60 -41 -44 -53 -46 -58 -53 -52 -45 -22 -23 -15 -10 0 0 0
0 0 0 -1 0 0 0 0 0 -6 0 0 0 -23 -3 -4 -4 0 0 -16 -113 -1 -38 -29 -221 -78 -77 -68 -64 -76 -60 -54 -41 -32 -18 -20 -1 -2
0 0 0 0 0 0 0 0 -2 -9 -33 -11 -3 0 -1 -11 0 0 -1 -4 -5 -44 -15 -38 -141 -26 -94 -90 -77 -82 -79 -79 -69 -44 -47 -65 -39 -6
-83 -66 -154 -167 -130 -75 -24 0 0 0 0 -2 -11 -34 -4 -5 -18 -29 -4 -28 -70 -35 -27 -33 -64 -62 -54 -61 -70 -115 -76 -31 -14 -44 -62 -60 -59 -46
0 -61 0 0 0 0 -43 -272 -93 0 0 0 0 -8 -7 -6 -10 -10 -6 -8 -18 -34 -8 0 0 -3 -27 -97 -65 -15 -13 -16 -73 -50 -24 -26 -43 -49
0 0 0 0 0 0 0 0 0 -299 -104 -10 -1 -1 0 -7 -7 -15 -1 -9 -46 -1 -53 0 -2 0 -115 -77 -12 0 0 -5 -4 -5 -14 -29 -26 -40
0 0 0 0 0 -62 0 -13 -1 -7 -2 0 -9 -9 -3 -8 -16 -4 -2 0 -2 0 0 -1 0 0 0 -3 -5 -2 0 0 -10 0 -4 -3 -21 -46
0 0 0 0 0 -1 0 0 0 0 0 0 0 0 0 0 -68 0 -12 0 0 0 0 -1 0 -2 -1 0 0 0 0 0 -55 0 0 -2 -5 -4
0 0 0 0 0 -6 0 0 0 0 0 0 0 0 0 0 0 0 -2 -1 -12 -5 -14 0 0 0 -7 -24 -48 -64 0 0 -23 -67 0 0 -42 -3
0 -2 0 0 0 0 0 0 0 0 0 0 -99 -12 -3 -4 0 -3 -17 -47 -39 -1 -6 0 0 0 -4 -1 -15 -29 -17 -43 0 -30 -52 -16 -15 -18
0 0 0 0 0 0 0 0 0 0 -2 -1 0 0 -1 0 -2 0 0 0 0 0 0 0 0 0 -2 0 -2 -1 0 -1 0 0 -15 -39 -9 -1
0 0 0 0 0 0 0 0 0 -17 0 0 -13 -21 -1 0 0 0 0 0 -4 -3 0 0 0 -2 -1 -1 0 0 -1 0 0 0 -2 -2 0 0
0 0 0 0 0 0 0 0 -25 0 0 0 0 0 -5 -1 -7 -2 -26 -54 -57 0 0 0 0 0 0 -10 0 0 0 0 0 0 -2 0 -1 0
0 -7 0 0 -16 -13 -5 -6 0 0 0 0 0 -1 -1 0 -1 0 0 0 0 -2 -31 -16 -74 -42 -2 -2 -1 0 -1 -1 -32 -44 0 0 0 0
0 -1 0 0 0 0 0 0 -1 0 0 0 -1 -3 -1 -4 -1 -7 0 0 0 -4 -6 -25 -34 -18 -5 -17 0 -1 -1 0 -1 -12 -8 -1 -3 -41
0 0 0 0 0 0 0 0 0 -1 0 0 0 0 0 -1 -7 -3 -19 -6 -2 0 0 -2 -4 -1 -3 -3 -47 -38 -24 -8 -10 -8 -1 0 0 -2
0 0 0 0 0 0 0 0 0 0 0 0 0 0 0 0 -1 0 0 0 -2 -4 -9 -3 0 -2 0 0 0 -5 -3 -3 0 0 -1 -1 0 0
-1 0 0 0 0 0 0 0 0 0 0 0 0 0 0 0 0 0 0 0 -2 -1 0 -1 -17 0 0 0 -1 -2 -26 -27 -7 -6 -5 -1 -1 -48
0 0 0 0 0 0 0 0 0 0 0 0 0 0 0 0 0 0 0 -7 -12 -2 -2 -1 -10 -38 -1 -1 0 0 0 -9 -16 -1 -1 0 0 0
0 0 0 0 0 0 0 0 0 0 0 0 0 0 0 0 0 -3 0 0 -2 0 -1 -4 -5 -3 -1 -3 -3 -4 -7 -10 -20 -81 -93 -90 0 0
0 0 -1 0 0 0 0 0 0 0 0 0 0 0 -1 0 -1 0 0 -1 0 -1 -11 0 -10 -10 -3 -2 -6 0 -5 -2 0 0 0 -44 -54 -54
Wind_Speed
15 20 18 16 18 17 18 18 19 27 31 33 31 36 32 nan 30 32 28 36 34 32 30 29 27 26 25 21 18 15 15 16 16 19 23 24 29 nan
14 17 13 12 13 16 19 17 15 15 20 23 16 21 29 28 27 27 32 44 34 34 35 34 33 31 28 26 22 19 18 18 19 18 19 18 27 25
15 16 15 12 16 14 15 15 16 18 16 20 21 29 26 28 29 28 28 28 38 42 44 42 36 36 31 29 25 24 22 21 22 21 20 21 21 25
13 13 14 16 15 14 16 16 20 20 16 13 18 21 28 27 28 28 26 40 36 53 60 24 nan 50 31 30 32 28 30 27 23 25 21 20 18 23
18 16 15 13 12 12 13 15 19 21 22 24 22 25 27 29 29 28 32 30 35 41 50 nan 46 45 30 33 34 32 29 34 31 30 26 22 23 23
21 21 nan nan 18 17 16 17 20 22 25 29 32 32 34 42 34 35 34 37 39 38 nan nan 34 33 38 44 40 36 36 38 33 32 29 24 24 22
nan nan nan nan nan nan nan nan 27 31 34 36 38 40 43 45 42 nan nan nan nan nan nan nan nan nan 47 47 52 nan 49 38 nan 37 34 31 25 26
nan nan nan nan nan nan nan nan nan nan nan 42 44 45 46 48 47 43 41 nan nan nan nan nan nan nan nan nan nan nan nan nan nan nan 36 34 32 29
nan nan nan nan nan nan nan nan nan nan nan nan nan nan 40 41 42 nan 42 40 38 nan nan nan nan nan nan nan nan nan nan nan nan nan nan 39 35 33
nan nan nan nan nan nan nan nan nan nan nan nan nan nan nan nan nan nan nan nan nan nan nan nan nan nan nan nan nan nan nan nan nan nan nan nan nan 41
nan nan nan nan nan nan nan nan nan nan nan nan nan nan nan nan nan nan nan nan nan 33 nan nan nan nan nan nan nan nan nan nan nan nan nan nan nan nan
nan nan nan nan nan nan nan nan nan nan nan nan nan nan nan nan nan nan 29 29 31 nan 39 nan nan nan nan 39 37 nan nan nan nan nan nan nan nan nan
nan nan nan nan nan nan nan nan nan nan nan nan nan nan nan nan 36 35 34 35 33 36 nan 35 37 nan nan 34 40 43 nan nan nan nan nan nan nan nan
nan nan nan nan nan nan nan nan nan nan nan nan nan nan nan nan nan nan nan nan nan nan nan nan nan nan nan nan nan nan nan nan nan nan nan nan nan nan
nan nan nan nan nan nan nan nan nan nan nan nan nan nan nan nan nan nan nan nan nan nan nan nan nan nan nan nan nan nan nan nan nan nan nan nan nan nan
nan nan nan nan nan nan nan nan nan nan nan nan nan nan nan nan nan nan nan nan nan 41 nan nan nan nan nan nan nan nan nan nan nan nan nan nan nan nan
nan nan nan nan nan nan nan nan nan nan nan nan nan nan nan nan nan nan nan nan nan nan 44 44 35 30 30 34 33 37 39 nan nan 46 nan nan nan nan
nan nan nan nan nan nan nan nan nan nan nan nan nan nan nan nan nan nan nan nan nan nan nan nan nan nan nan nan 46 nan nan nan nan nan nan nan nan nan
nan nan nan nan nan nan nan nan nan nan nan nan nan nan nan nan nan nan nan nan nan nan nan nan nan 30 nan nan nan nan nan nan nan nan nan nan nan nan
nan nan nan nan nan nan nan nan nan nan nan nan nan nan nan nan nan nan nan nan nan nan nan nan nan nan nan nan nan nan nan nan nan nan nan nan nan nan
nan nan nan nan nan nan nan nan nan nan nan nan nan nan nan nan nan nan nan nan nan nan nan nan nan nan nan nan nan nan 28 nan nan nan nan nan nan nan
nan nan nan nan nan nan nan nan nan nan nan nan nan nan nan nan nan nan nan nan nan nan nan nan 20 24 24 nan nan nan nan nan nan nan nan nan nan nan
nan nan nan nan nan nan nan nan nan nan nan nan nan nan nan nan nan nan nan nan nan nan nan nan nan nan nan nan nan nan nan nan nan nan nan nan nan nan
Wind_Direction
322 319 318 308 311 315 315 326 287 263 266 267 278 286 284 nan 282 294 294 299 300 300 296 293 293 289 286 289 291 296 300 314 322 328 338 346 322 nan
331 306 323 326 319 332 324 322 313 299 291 278 288 286 284 280 291 295 285 287 302 300 295 288 281 277 274 276 281 284 287 293 300 308 319 339 335 338
335 342 350 334 341 343 344 347 339 324 327 315 302 282 285 292 283 285 296 298 277 266 258 256 263 267 268 267 268 272 277 283 287 295 308 316 325 333
320 317 319 318 324 332 333 340 346 345 327 315 309 313 303 289 293 293 297 283 287 267 266 257 nan 245 256 269 271 267 269 272 273 281 292 297 307 312
290 293 288 287 294 309 319 324 318 316 313 317 311 303 298 296 293 303 292 284 281 285 289 nan 273 280 279 278 274 268 267 270 268 267 267 273 290 296
290 295 nan nan 293 292 302 304 304 309 310 305 301 296 298 295 292 288 291 281 275 275 nan nan 284 293 285 274 271 270 266 258 256 261 260 260 261 274
nan nan nan nan nan nan nan nan 294 299 301 299 295 294 289 287 285 nan nan nan nan nan nan nan nan nan 279 274 270 nan 252 255 nan 249 250 253 248 255
nan nan nan nan nan nan nan nan nan nan nan 292 292 291 287 287 288 287 282 nan nan nan nan nan nan nan nan nan nan nan nan nan nan nan 243 243 245 248
nan nan nan nan nan nan nan nan nan nan nan nan nan nan 294 294 293 nan 291 290 287 nan nan nan nan nan nan nan nan nan nan nan nan nan nan 240 243 246
nan nan nan nan nan nan nan nan nan nan nan nan nan nan nan nan nan nan nan nan nan nan nan nan nan nan nan nan nan nan nan nan nan nan nan nan nan 244
nan nan nan nan nan nan nan nan nan nan nan nan nan nan nan nan nan nan nan nan nan 290 nan nan nan nan nan nan nan nan nan nan nan nan nan nan nan nan
nan nan nan nan nan nan nan nan nan nan nan nan nan nan nan nan nan nan 285 284 284 nan 283 nan nan nan nan 273 273 nan nan nan nan nan nan nan nan nan
nan nan nan nan nan nan nan nan nan nan nan nan nan nan nan nan 287 287 284 284 282 282 nan 279 277 nan nan 264 266 266 nan nan nan nan nan nan nan nan
nan nan nan nan nan nan nan nan nan nan nan nan nan nan nan nan nan nan nan nan nan nan nan nan nan nan nan nan nan nan nan nan nan nan nan nan nan nan
nan nan nan nan nan nan nan nan nan nan nan nan nan nan nan nan nan nan nan nan nan nan nan nan nan nan nan nan nan nan nan nan nan nan nan nan nan nan
nan nan nan nan nan nan nan nan nan nan nan nan nan nan nan nan nan nan nan nan nan 290 nan nan nan nan nan nan nan nan nan nan nan nan nan nan nan nan
nan nan nan nan nan nan nan nan nan nan nan nan nan nan nan nan nan nan nan nan nan nan 283 291 288 284 273 268 267 264 261 nan nan 264 nan nan nan nan
nan nan nan nan nan nan nan nan nan nan nan nan nan nan nan nan nan nan nan nan nan nan nan nan nan nan nan nan 270 nan nan nan nan nan nan nan nan nan
nan nan nan nan nan nan nan nan nan nan nan nan nan nan nan nan nan nan nan nan nan nan nan nan nan 282 nan nan nan nan nan nan nan nan nan nan nan nan
nan nan nan nan nan nan nan nan nan nan nan nan nan nan nan nan nan nan nan nan nan nan nan nan nan nan nan nan nan nan nan nan nan nan nan nan nan nan
nan nan nan nan nan nan nan nan nan nan nan nan nan nan nan nan nan nan nan nan nan nan nan nan nan nan nan nan nan nan 276 nan nan nan nan nan nan nan
nan nan nan nan nan nan nan nan nan nan nan nan nan nan nan nan nan nan nan nan nan nan nan nan 305 294 287 nan nan nan nan nan nan nan nan nan nan nan
nan nan nan nan nan nan nan nan nan nan nan nan nan nan nan nan nan nan nan nan nan nan nan nan nan nan nan nan nan nan nan nan nan nan nan nan nan nan